Overview Statistics Trail Chart Weather Telemetry Raw packets
 

This is the latest recevied weather packets stored in our database for station/object N6GPM. If no packets are shown the sender has not sent any weather packets the latest 10 day(s).

<< 83 84 85 86 87 88 89 >>
Time Temp. Humidity Pressure Rain* Wind** Luminosity Snow
1788072574 25° C 53% 1016.5 hPa 0 mm - 0 W/m² -
1788072270 25.56° C 53% 1016.4 hPa 0 mm - 0 W/m² -
1788071970 25.56° C 53% 1016.3 hPa 0 mm - 0 W/m² -
1788071664 25.56° C 55% 1016.3 hPa 0 mm - 0 W/m² -
1788071363 26.11° C 55% 1016.2 hPa 0 mm - 0 W/m² -
1788071063 26.11° C 54% 1016.4 hPa 0 mm - 0 W/m² -
1788070758 26.11° C 54% 1016.1 hPa 0 mm - 0 W/m² -
1788070457 26.11° C 54% 1016.3 hPa 0 mm - 0 W/m² -
1788070163 25.56° C 55% 1016 hPa 0 mm - 0 W/m² -
1788069851 26.11° C 55% 1016.3 hPa 0 mm - 0 W/m² -
1788069546 26.11° C 54% 1016.3 hPa 0 mm - 0 W/m² -
1788069241 26.11° C 55% 1016.5 hPa 0 mm - 0 W/m² -
1788068936 26.11° C 55% 1016.3 hPa 0 mm - 0 W/m² -
1788068633 26.11° C 55% 1016.3 hPa 0 mm - 0 W/m² -
1788068328 26.11° C 55% 1016.4 hPa 0 mm - 0 W/m² -
1788068023 26.11° C 54% 1016.2 hPa 0 mm - 0 W/m² -
1788067722 26.11° C 54% 1016.3 hPa 0 mm - 0 W/m² -
1788067418 26.11° C 53% 1016.4 hPa 0 mm - 0 W/m² -
1788067113 26.11° C 52% 1016.3 hPa 0 mm - 0 W/m² -
1788066808 26.11° C 51% 1016.4 hPa 0 mm - 0 W/m² -
1788066507 26.67° C 51% 1016.4 hPa 0 mm - 0 W/m² -
1788066203 26.67° C 51% 1016.3 hPa 0 mm - 0 W/m² -
1788065901 26.11° C 51% 1016.4 hPa 0 mm - 0 W/m² -
1788065596 26.67° C 49% 1016.4 hPa 0 mm - 0 W/m² -
1788065295 26.67° C 49% 1016.3 hPa 0 mm - 0 W/m² -

* Rain latest hour (hover to see other rain measurements)
** Current wind speed in m/s (hover to see current wind gust speed)